Domov               UVHVVR             MKGP            O straneh              
ZDRAVSTVENO VARSTVO RASTLIN
  MREŽA AGROMET. POSTAJ
 ► PROGNOSTIČNA OBVESTILA
AGROMETEOROLOŠKI PODATKI -
ARSO
OBVLADOVANJE TVEGANJ ZARADI
NEUGODNIH VREMENSKIH RAZMER
  ► NARAVNE NESREČE
  ► SUŠA/MOČA
  ► NAMAKANJE
  ► ŽLED (gozdarstvo)
KARTOGRAFSKI PRIKAZI
SPLETNE POVEZAVE
PROJEKTI IN PUBLIKACIJE

AGROMETEOROLOŠKA MREŽA: VREMENSKE POSTAJE IN FENOLOŠKA OPAZOVANJA

Pregled podatkov za lokacijo Selo, meteorološka postaja 37838

Pregled senzorjev na lokaciji

ID Ime Zadnja
vrednost
Datum
zadnje
spremembe
Tip
senzorja
4044 Omočenost lista (U) 0 U 23.8.2017 05:30 A730WET
4045 Padavine 0.2 mm (mm) 0 mm 23.8.2017 05:30 Rain-O-Matic
4046 Temperatura 2 m ( °C) 13,97 °C 23.8.2017 05:30 50YA
4047 Relativna vlaga 2 m (% RH) 62,76 % RH 23.8.2017 05:30 50YA

Pregled podatkov zadnjih 24 ur

Zap.
št.
Datum in čas Selo
Omočenost
lista
Padavine
0.2
mm
Relativna
vlaga
2
m
Temperatura
2
m
0 23.8.2017 04:30 0 0 62,93 14,08
1 23.8.2017 04:00 0 0 65,24 14,02
2 23.8.2017 03:30 0 0 66,52 14,15
3 23.8.2017 03:00 0 0 68,01 14,35
4 23.8.2017 02:30 0 0 64 15,01
5 23.8.2017 02:00 0 0 60,73 15,37
6 23.8.2017 01:30 0 0 55,14 16,35
7 23.8.2017 01:00 0 0 54,92 16,2
8 23.8.2017 00:30 0 0 54,24 16,26
9 23.8.2017 00:00 0 0 57,26 15,42
10 22.8.2017 23:30 0 0 51,06 16,52
11 22.8.2017 23:00 0 0 43,99 17,83
12 22.8.2017 22:30 0 0 46,67 17,35
13 22.8.2017 22:00 0 0 46,91 17,68
14 22.8.2017 21:30 0 0 44,22 18,11
15 22.8.2017 21:00 0 0 45,03 18,06
16 22.8.2017 20:30 0 0 48,73 17,41
17 22.8.2017 20:00 0 0 45,12 18,29
18 22.8.2017 19:30 0 0 48,83 18,1
19 22.8.2017 19:00 0 0 47,72 18,75
20 22.8.2017 18:30 0 0 44,95 20,29
21 22.8.2017 18:00 0 0 42,65 20,71
22 22.8.2017 17:30 0 0 39,49 20,99
23 22.8.2017 17:00 0 0 35,02 21,95
24 22.8.2017 16:30 0 0 34,35 21,72
25 22.8.2017 16:00 0 0 36,04 21,66
26 22.8.2017 15:30 0 0 34,04 21,9
27 22.8.2017 15:00 0 0 37,12 21,42
28 22.8.2017 14:30 0 0 36,14 21,66
29 22.8.2017 14:00 0 0 34,68 21,64
30 22.8.2017 13:30 0 0 34,14 22,08
31 22.8.2017 13:00 0 0 33,7 21,95
32 22.8.2017 12:30 0 0 34,11 21,17
33 22.8.2017 12:00 0 0 36,57 21,28
34 22.8.2017 11:30 0 0 39,82 20,53
35 22.8.2017 11:00 0 0 39,33 20,62
36 22.8.2017 10:30 0 0 42,3 20,1
37 22.8.2017 10:00 0 0 45,2 19,6
38 22.8.2017 09:30 0 0 47,5 19,04
39 22.8.2017 09:00 0 0 49,88 18,64
40 22.8.2017 08:30 0 0 52,1 17,91
41 22.8.2017 08:00 0 0 53,58 17,13
42 22.8.2017 07:30 0 0 56,24 15,76
43 22.8.2017 07:00 0 0 59,65 14,44
44 22.8.2017 06:30 0 0 60,93 13,52
© 2011 Ministrstvo za kmetijstvo, gozdarstvo in prehrano. Vse pravice pridržane.